Home > Weather > Venice > Past weeks

Flag for Italy Weather for the Past 2 Weeks in Venice, Italy

Now
45 °F

Clear.


Feels Like: 41 °F
Forecast: 37 / 47 °F
Wind: 7 mph from Southwest

Location: Venice / Tessera

Current Time: Feb 11, 2016 at 6:36:22 PM

Latest Report: Feb 11, 2016 at 5:50 PM


Visibility: 10 mi

Pressure: 29.77 "Hg

Humidity: 81%

Dew point: 39 °F

Location of VeniceLocation

Historic Weather in Venice — Graph

°F

Venice Temperature Yesterday

Maximum temperature yesterday: 52 °F (at 1:20 AM)
Minimum temperature yesterday: 37 °F (at 10:50 PM)
Average temperature yesterday: 46 °F

High & Low Weather Summary for the Past Weeks

 TemperatureHumidityPressure
High54 °F (Feb 4, 12:20 PM)100% (Jan 28, 7:20 PM)30.48 "Hg (Jan 28, 7:20 PM)
Low34 °F (Feb 5, 5:50 AM)38% (Feb 4, 2:50 PM)29.18 "Hg (Feb 10, 7:50 AM)
Average45 °F87%30.10 "Hg
* Reported Jan 27 5:20 PM — Feb 11 5:20 PM, Venice, Weather by CustomWeather, © 2016

Note: Actual official high and low records may vary slightly from our data, if they occured in-between our weather recording intervals... More about our weather records

Advertising

Venice Weather History for the Previous 24 Hours

 ConditionsComfort  
Time TempWeatherWind HumidityBarometerVisibility
5:20 PM
Thu, Feb 11
46 °FSunny.5 mph82%29.74 "Hg10 mi
4:50 PM48 °FSunny.5 mph71%29.74 "Hg10 mi
4:20 PM50 °FPassing clouds.5 mph58%29.74 "HgN/A
3:50 PM52 °FSunny.6 mph54%29.74 "Hg10 mi
3:20 PM52 °FSunny.5 mph54%29.74 "Hg10 mi
2:50 PM50 °FPassing clouds.6 mph58%29.74 "HgN/A
2:20 PM52 °FPassing clouds.5 mph54%29.74 "HgN/A
1:50 PM50 °FPassing clouds.5 mph54%29.77 "HgN/A
1:20 PM50 °FPassing clouds.6 mph54%29.77 "HgN/A
12:50 PM50 °FSunny.7 mph54%29.77 "Hg10 mi
12:20 PM50 °FPassing clouds.7 mph50%29.77 "HgN/A
11:50 AM48 °FPassing clouds.6 mph54%29.77 "HgN/A
11:20 AM46 °FPassing clouds.5 mph62%29.77 "HgN/A
10:50 AM45 °FPassing clouds.5 mph66%29.77 "HgN/A
10:20 AM43 °FPassing clouds.7 mph66%29.77 "HgN/A
9:50 AM41 °FPassing clouds.8 mph66%29.74 "HgN/A
9:20 AM39 °FSunny.9 mph70%29.74 "Hg10 mi
8:50 AM39 °FSunny.8 mph70%29.74 "Hg10 mi
8:20 AM37 °FPassing clouds.10 mph75%29.74 "HgN/A
7:50 AM36 °FSunny.9 mph81%29.71 "Hg10 mi
7:20 AM36 °FSunny.8 mph81%29.71 "Hg10 mi
6:50 AM37 °FPassing clouds.9 mph81%29.71 "HgN/A
6:20 AM36 °FPassing clouds.8 mph87%29.71 "HgN/A
5:50 AM36 °FPassing clouds.9 mph87%29.71 "HgN/A
5:20 AM34 °FClear.7 mph93%29.68 "Hg10 mi
4:50 AM36 °FPassing clouds.5 mph87%29.68 "HgN/A
4:20 AM36 °FClear.7 mph87%29.68 "Hg10 mi
3:50 AM36 °FClear.3 mph87%29.68 "Hg10 mi
2:50 AM39 °FClear.8 mph81%29.65 "Hg10 mi
2:20 AM37 °FPassing clouds.5 mph87%29.65 "HgN/A
1:50 AM36 °FClear.7 mph93%29.65 "Hg10 mi
1:20 AM39 °FClear.7 mph87%29.65 "Hg10 mi
12:50 AM37 °FPassing clouds.6 mph93%29.62 "HgN/A
11:50 PM
Wed, Feb 10
37 °FPassing clouds.7 mph93%29.62 "HgN/A
10:50 PM37 °FPassing clouds.6 mph93%29.59 "HgN/A
9:50 PM41 °FClear.1 mph87%29.59 "Hg10 mi
9:20 PM43 °FClear.9 mph87%29.56 "Hg10 mi
8:50 PM41 °FPassing clouds.8 mph87%29.56 "HgN/A
8:20 PM41 °FPassing clouds.5 mph87%29.56 "HgN/A
7:50 PM43 °FPassing clouds.6 mph81%29.53 "HgN/A
7:20 PM45 °FPassing clouds.3 mph76%29.53 "HgN/A
6:50 PM46 °FPassing clouds.5 mph71%29.50 "HgN/A
6:20 PM46 °FPassing clouds.6 mph71%29.50 "HgN/A
Weather by CustomWeather, © 2016

See weather overviewHow to use our weather pages